Погода в Кавалезе

Италия     46°17′29″N   11°27′35″E
темп.,
°C
ветер,
м/с
пор.,
м/с
влажн.,
%
обл.,
%
осадки,
мм/ч
давл.,
гПа
погр.,
м
16 октября, сб
сб1623:00+2св2181100 0.0 101915
02:00+1св218093 0.0 101917
05:00+1св217981 0.0 101916
08:00+1всв216986 0.0 102015
11:00+8юз115199 0.0 1018678
14:00+10з225026 0.0 10161327
17:00+8з116015 0.0 1017565
20:00+2вюв11925 0.0 102113
17 октября, вс
вс1723:00+1в11931 0.0 102211
02:000всв11931 0.0 102211
05:000всв11921 0.0 102212
08:000св11905 0.0 102213
11:00+9зюз11541 0.0 1019572
14:00+11зюз21482 0.0 10181031
17:00+9зюз11624 0.0 1018409
20:00+3в11923 0.0 102211
18 октября, пн
пн1823:00+2всв119119 0.0 102311
02:00+1всв118699 0.0 102412
05:00+2св1171100 0.0 102312
08:00+2св1169100 0.0 102314
11:00+9сз115084 0.0 1021407
14:00+12з22420 0.0 10211141
17:00+10зюз12590 0.0 1022318
20:00+4всв118547 0.0 102511
19 октября, вт
вт1923:00+3всв117974 0.0 102710
02:00+3всв1176100 0.0 102711
05:00+2всв117613 0.0 102812
08:00+3всв216976 0.0 102712
11:00+10з114596 0.0 1025398
14:00+12зюз2148100 0.0 1025742
17:00+10з116489 0.0 1024266
20:00+5всв118855 0.0 102611
20 октября, ср
ср2023:00+4св11775 0.0 102710
02:00+4в11715 0.0 102610
05:00+3вюв11752 0.0 102510
08:00+3в11837 0.0 102510
11:00+10зюз225958 0.0 1022491
14:00+10юз2253100 0.0 1020767
17:00+8ююз2276100 0.0 1019483
20:00+5ю1297100 0.1 1019162